Regional Weather Roundup
Issued by NWS

Home | Current Version | Previous Version | Text Only | Print | Product List | Glossary On
Versions: 1 2 3 4 5 6 7 8 9 10 11 12 13 14 15 16 17 18 19 20 21 22 23 24 25 26 27
000
ASUS45 KBOI 232310
RWRID
WEATHER ROUNDUP FOR IDAHO
NATIONAL WEATHER SERVICE BOISE ID
500 PM MDT WED APR 23 2014

NOTE: "FAIR" INDICATES FEW OR NO CLOUDS BELOW 12000 FEET
WITH NO SIGNIFICANT WEATHER AND/OR OBSTRUCTIONS TO VISIBILITY

IDZ012-014-240000-
SOUTHWEST IDAHO


CITY           SKY/WX    TMP DP  RH WIND       PRES   REMARKS
BOISE          CLOUDY    55  29  36 VRB3      29.98F
CALDWELL       PTSUNNY   55  30  38 E9        29.98F
MOUNTAIN HOME  MOSUNNY   56  25  30 NE7       29.97F
$$

IDZ016-017-240000-
SOUTHCENTRAL IDAHO


CITY           SKY/WX    TMP DP  RH WIND       PRES   REMARKS
BURLEY         PTSUNNY   49  29  46 W12G23    29.99F
JEROME         PTSUNNY   51  25  36 SW14      30.00F
TWIN FALLS     CLOUDY    52  28  39 SW12      30.00F
$$

IDZ019>023-240000-
SOUTHEAST IDAHO


CITY           SKY/WX    TMP DP  RH WIND       PRES   REMARKS
IDAHO FALLS    PTSUNNY   50  21  32 SW24G30   29.92F
POCATELLO      PTSUNNY   52  21  29 SW29G38   29.99R
REXBURG        PTSUNNY   49  21  33 SW28G36   29.90S
$$

IDZ006-010-011-018-031-032-240000-
CENTRAL IDAHO MOUNTAINS


CITY           SKY/WX    TMP DP  RH WIND       PRES   REMARKS
MCCALL         CLOUDY    39  30  70 SE10      29.92S WCI  32
HAILEY         PTSUNNY   39  25  56 SW10      29.98R WCI  32
STANLEY          N/A     35  21  56 VRB5      29.96R WCI  31
SALMON         MOSUNNY   52  21  30 SW15G23   29.84S
CHALLIS        MOSUNNY   48  17  29 S7G26     29.89S
$$

IDZ002-004-006-007-026-240000-
NORTHERN IDAHO


CITY           SKY/WX    TMP DP  RH WIND       PRES   REMARKS
LEWISTON       CLOUDY    54  27  35 W10       29.89R
LOWELL           N/A     52  39  61 NW6       29.91R
COEUR D`ALENE  PTSUNNY   48  34  57 SW17G25   29.81S
MULLAN PASS    CLOUDY    27  25  93 SW7       29.78S WCI  19
$$



USA.gov is the U.S. government's official web portal to all federal, state and local government web resources and services.